Location: Sauerland
(51.1981°N, 7.8053°E)
Time: 04:53:32
(UTC+02:00)

ISS - Visible Passes

Search period start: 30 March 2017 00:00
Search period end: 09 April 2017 00:00
Orbit: 399 x 409 km, 51.6° (Epoch: 30 March)

Date Brightness Start Highest point End Pass type
(mag) Time Alt. Az. Time Alt. Az. Time Alt. Az.
30 Mar -2.8 20:50:09 10° SSW 20:52:59 28° SSE 20:55:20 13° E visible
30 Mar -2.6 22:25:56 10° WSW 22:28:01 36° WSW 22:28:01 36° WSW visible
31 Mar -3.9 21:33:37 10° WSW 21:36:51 65° SSE 21:38:04 34° E visible
31 Mar -1.0 23:10:04 10° W 23:10:45 15° W 23:10:45 15° W visible
01 Apr -3.5 20:41:23 10° SW 20:44:32 47° SSE 20:47:42 10° E visible
01 Apr -3.7 22:17:39 10° W 22:20:40 73° WNW 22:20:40 73° WNW visible
02 Apr -3.9 21:25:14 10° WSW 21:28:30 88° S 21:30:29 22° E visible
02 Apr -1.6 23:01:45 10° W 23:03:08 23° W 23:03:08 23° W visible
03 Apr -3.8 20:32:51 10° WSW 20:36:06 72° SSE 20:39:22 10° E visible
03 Apr -3.9 22:09:19 10° W 22:12:36 82° N 22:12:52 72° ENE visible
04 Apr -3.8 21:16:52 10° W 21:20:09 81° N 21:22:32 17° E visible
04 Apr -2.1 22:53:22 10° W 22:55:11 30° W 22:55:11 30° W visible
05 Apr -3.9 22:00:56 10° W 22:04:13 85° S 22:04:48 57° ESE visible
06 Apr -3.8 21:08:28 10° W 21:11:45 84° N 21:14:25 15° E visible
06 Apr -2.3 22:45:00 10° W 22:47:03 31° WSW 22:47:03 31° WSW visible
07 Apr -3.7 21:52:29 10° W 21:55:43 62° SSW 21:56:38 40° SE visible
08 Apr -3.8 21:00:01 10° W 21:03:17 80° SSW 21:06:14 12° ESE visible
08 Apr -2.1 22:36:40 10° W 22:38:52 24° SW 22:38:52 24° SW visible
